QPF
0.00 0.00 0.00 0.00 0.00 0.00 0.00 0.00 0.00 0.00 0.00 0.00 0.00 0.00 0.00 0.00 0.00 0.00 0.00 0.00 0.00 0.00 0.00 0.00 0.00 0.00 0.00 0.00 0.00 0.00 0.03 0.08 0.15 0.09 0.07 0.01 0.01 0.00 0.00 0.00 0.00 0.00 0.00 0.00 0.00
0.00 0.00 0.00 0.00 0.00 0.00 0.00 0.00 0.00 0.00 0.00 0.00 0.00 0.00 0.00 0.00 0.00 0.00 0.00 0.00 0.00 0.00 0.00 0.00 0.00 0.00 0.00 0.00 0.01 0.01 0.09 0.15 0.07 0.05 0.03 0.01 0.02 0.00 0.00 0.00 0.00 0.00 0.00 0.00 0.00
0.00 0.00 0.00 0.00 0.00 0.00 0.00 0.00 0.00 0.00 0.00 0.00 0.00 0.00 0.00 0.00 0.00 0.00 0.00 0.00 0.00 0.00 0.00 0.00 0.00 0.00 0.00 0.02 0.03 0.01 0.10 0.02 0.00 0.01 0.04 0.05 0.00 0.00 0.00 0.00 0.00 0.00 0.00 0.00 0.00
0.00 0.00 0.00 0.00 0.00 0.00 0.00 0.00 0.00 0.00 0.00 0.00 0.00 0.00 0.00 0.00 0.00 0.00 0.00 0.00 0.00 0.00 0.00 0.00 0.00 0.00 0.00 0.01 0.03 0.02 0.00 0.00 0.00 0.02 0.08 0.10 0.01 0.00 0.00 0.00 0.00 0.00 0.00 0.00 0.00
0.00 0.00 0.00 0.00 0.00 0.00 0.00 0.00 0.00 0.00 0.00 0.00 0.00 0.00 0.00 0.00 0.00 0.00 0.00 0.00 0.00 0.00 0.00 0.00 0.00 0.00 0.00 0.03 0.02 0.01 0.00 0.00 0.00 0.01 0.02 0.02 0.01 0.00 0.00 0.00 0.00 0.00 0.00 0.00 0.00
0.00 0.00 0.00 0.00 0.00 0.00 0.00 0.00 0.00 0.00 0.00 0.00 0.00 0.00 0.00 0.00 0.00 0.00 0.00 0.00 0.00 0.00 0.00 0.00 0.00 0.00 0.00 0.00 0.01 0.01 0.00 0.00 0.00 0.00 0.02 0.02 0.06 0.01 0.00 0.00 0.00 0.00 0.00 0.00 0.00
0.00 0.00 0.00 0.00 0.00 0.00 0.00 0.00 0.00 0.00 0.00 0.00 0.00 0.00 0.00 0.00 0.00 0.00 0.00 0.00 0.00 0.00 0.00 0.00 0.00 0.00 0.03 0.02 0.00 0.00 0.00 0.00 0.00 0.00 0.00 0.00 0.05 0.04 0.00 0.00 0.00 0.00 0.00 0.00 0.00
0.00 0.00 0.00 0.00 0.00 0.00 0.00 0.00 0.00 0.00 0.00 0.00 0.00 0.00 0.00 0.00 0.00 0.00 0.00 0.00 0.00 0.00 0.00 0.00 0.00 0.00 0.01 0.03 0.02 0.01 0.03 0.04 0.00 0.00 0.00 0.00 0.01 0.02 0.01 0.00 0.00 0.00 0.00 0.00 0.00
0.00 0.00 0.00 0.00 0.00 0.00 0.00 0.00 0.00 0.00 0.00 0.00 0.00 0.00 0.00 0.00 0.00 0.00 0.00 0.00 0.00 0.00 0.00 0.00 0.00 0.00 0.00 0.03 0.09 0.06 0.04 0.03 0.02 0.00 0.00 0.00 0.00 0.02 0.05 0.00 0.00 0.00 0.00 0.00 0.00
0.00 0.00 0.00 0.00 0.00 0.00 0.00 0.00 0.00 0.00 0.00 0.00 0.00 0.00 0.00 0.00 0.00 0.00 0.00 0.00 0.00 0.00 0.00 0.00 0.00 0.00 0.01 0.02 0.06 0.08 0.02 0.02 0.03 0.01 0.00 0.00 0.00 0.00 0.03 0.01 0.00 0.00 0.00 0.00 0.00
0.00 0.00 0.00 0.00 0.00 0.00 0.00 0.00 0.00 0.00 0.00 0.00 0.00 0.00 0.00 0.00 0.00 0.00 0.00 0.00 0.00 0.00 0.00 0.00 0.00 0.00 0.01 0.04 0.00 0.03 0.00 0.01 0.00 0.00 0.01 0.00 0.00 0.00 0.00 0.00 0.00 0.00 0.00 0.00 0.01
0.00 0.00 0.00 0.00 0.00 0.00 0.00 0.00 0.00 0.00 0.00 0.00 0.00 0.00 0.00 0.00 0.00 0.00 0.00 0.00 0.00 0.00 0.00 0.00 0.00 0.00 0.01 0.01 0.00 0.00 0.01 0.00 0.00 0.00 0.01 0.01 0.01 0.02 0.00 0.00 0.00 0.00 0.00 0.01 0.01
0.00 0.00 0.00 0.00 0.00 0.00 0.00 0.00 0.00 0.00 0.00 0.00 0.00 0.00 0.00 0.00 0.00 0.00 0.00 0.00 0.00 0.00 0.00 0.00 0.00 0.00 0.00 0.00 0.00 0.00 0.00 0.00 0.00 0.00 0.00 0.02 0.10 0.13 0.07 0.01 0.00 0.00 0.00 0.03 0.01
0.00 0.00 0.00 0.00 0.00 0.00 0.00 0.00 0.00 0.00 0.00 0.00 0.00 0.00 0.00 0.00 0.00 0.00 0.00 0.00 0.00 0.00 0.00 0.00 0.00 0.00 0.00 0.00 0.00 0.00 0.00 0.00 0.00 0.00 0.04 0.01 0.05 0.02 0.06 0.01 0.00 0.00 0.00 0.00 0.01
0.00 0.00 0.00 0.00 0.00 0.00 0.00 0.00 0.00 0.00 0.00 0.00 0.00 0.00 0.00 0.00 0.00 0.00 0.00 0.00 0.00 0.00 0.00 0.00 0.00 0.00 0.00 0.00 0.00 0.00 0.00 0.00 0.00 0.00 0.00 0.00 0.00 0.01 0.03 0.04 0.01 0.00 0.00 0.00 0.00
0.00 0.00 0.00 0.00 0.00 0.00 0.00 0.00 0.00 0.00 0.00 0.00 0.00 0.00 0.00 0.00 0.00 0.00 0.00 0.00 0.00 0.00 0.00 0.00 0.00 0.00 0.00 0.00 0.00 0.00 0.00 0.00 0.00 0.00 0.00 0.00 0.00 0.00 0.00 0.01 0.02 0.00 0.00 0.00 0.00
0.00 0.00 0.00 0.00 0.00 0.00 0.00 0.00 0.00 0.00 0.00 0.00 0.00 0.00 0.00 0.00 0.00 0.00 0.00 0.00 0.00 0.00 0.00 0.00 0.00 0.00 0.00 0.00 0.00 0.00 0.00 0.00 0.00 0.00 0.00 0.00 0.00 0.00 0.00 0.00 0.00 0.00 0.00 0.00 0.00
0.00 0.00 0.00 0.00 0.00 0.00 0.00 0.00 0.00 0.00 0.00 0.00 0.00 0.00 0.00 0.00 0.00 0.00 0.00 0.00 0.00 0.00 0.00 0.00 0.00 0.00 0.00 0.00 0.00 0.00 0.00 0.00 0.00 0.00 0.00 0.00 0.00 0.00 0.00 0.00 0.00 0.00 0.00 0.00 0.00
0.00 0.00 0.00 0.00 0.00 0.00 0.00 0.00 0.00 0.00 0.00 0.00 0.00 0.00 0.00 0.00 0.00 0.00 0.00 0.00 0.00 0.00 0.00 0.00 0.00 0.00 0.00 0.00 0.00 0.00 0.00 0.00 0.00 0.00 0.00 0.00 0.00 0.00 0.00 0.00 0.00 0.00 0.00 0.00 0.00
0.00 0.00 0.00 0.00 0.00 0.00 0.00 0.00 0.00 0.00 0.00 0.00 0.00 0.00 0.00 0.00 0.00 0.00 0.00 0.00 0.00 0.00 0.00 0.00 0.00 0.00 0.00 0.00 0.00 0.00 0.00 0.00 0.00 0.00 0.00 0.00 0.00 0.00 0.00 0.00 0.00 0.00 0.00 0.00 0.00
0.00 0.00 0.00 0.00 0.00 0.00 0.00 0.00 0.00 0.00 0.00 0.00 0.00 0.00 0.00 0.00 0.00 0.00 0.00 0.00 0.00 0.00 0.00 0.00 0.00 0.00 0.00 0.00 0.00 0.00 0.00 0.00 0.00 0.00 0.00 0.00 0.00 0.00 0.00 0.00 0.00 0.00 0.00 0.00 0.00
0.00 0.00 0.00 0.00 0.00 0.00 0.00 0.00 0.00 0.00 0.00 0.00 0.00 0.00 0.00 0.00 0.00 0.00 0.00 0.00 0.00 0.00 0.00 0.00 0.00 0.00 0.00 0.00 0.00 0.00 0.00 0.00 0.00 0.00 0.00 0.00 0.00 0.00 0.00 0.00 0.00 0.00 0.00 0.00 0.00
0.00 0.00 0.00 0.00 0.00 0.00 0.00 0.00 0.00 0.00 0.00 0.00 0.00 0.00 0.00 0.00 0.00 0.00 0.00 0.00 0.00 0.00 0.00 0.00 0.00 0.00 0.00 0.00 0.00 0.00 0.00 0.00 0.00 0.00 0.00 0.00 0.00 0.00 0.00 0.00 0.00 0.00 0.00 0.00 0.00
0.00 0.00 0.00 0.00 0.00 0.00 0.00 0.00 0.00 0.00 0.00 0.00 0.00 0.00 0.00 0.00 0.00 0.00 0.00 0.00 0.00 0.00 0.00 0.00 0.00 0.00 0.00 0.00 0.00 0.00 0.00 0.00 0.00 0.00 0.00 0.00 0.00 0.00 0.00 0.00 0.00 0.00 0.00 0.00 0.00
0.00 0.00 0.00 0.00 0.00 0.00 0.00 0.00 0.00 0.00 0.00 0.00 0.00 0.00 0.00 0.00 0.00 0.00 0.00 0.00 0.00 0.00 0.00 0.00 0.00 0.00 0.00 0.00 0.00 0.00 0.00 0.00 0.00 0.00 0.00 0.00 0.00 0.00 0.00 0.00 0.00 0.00 0.00 0.00 0.00
0.00 0.00 0.00 0.00 0.00 0.00 0.00 0.00 0.00 0.00 0.00 0.00 0.00 0.00 0.00 0.00 0.00 0.00 0.00 0.00 0.00 0.00 0.00 0.00 0.00 0.00 0.00 0.00 0.00 0.00 0.00 0.00 0.00 0.00 0.00 0.00 0.00 0.00 0.00 0.00 0.00 0.00 0.00 0.00 0.00
0.00 0.00 0.00 0.00 0.00 0.00 0.00 0.00 0.00 0.00 0.00 0.00 0.00 0.00 0.00 0.00 0.00 0.00 0.00 0.00 0.00 0.00 0.00 0.00 0.00 0.00 0.00 0.00 0.00 0.00 0.00 0.00 0.00 0.00 0.00 0.00 0.00 0.00 0.00 0.00 0.00 0.00 0.00 0.00 0.00
MSLP
1015.72 1015.45 1015.22 1014.99 1014.74 1014.53 1014.33 1014.06 1013.85 1013.60 1013.36 1012.99 1012.70 1012.56 1012.26 1011.83 1010.99 1010.29 1008.21 1006.54 1005.98 1006.37 1006.65 1005.79 1005.33 1004.47 1003.73 1003.08 1002.96 1003.58 1006.02 1007.08 1007.68 1008.44 1008.21 1006.67 1004.89 1004.25 1004.01 1004.02 1004.24 1005.13 1006.13 1008.07 1009.44
1015.65 1015.35 1015.10 1014.86 1014.61 1014.36 1014.14 1013.89 1013.68 1013.48 1013.20 1012.98 1012.66 1012.49 1012.20 1011.92 1010.46 1008.09 1006.09 1006.02 1006.23 1006.43 1006.23 1005.10 1004.06 1003.52 1002.79 1003.58 1004.53 1004.69 1005.96 1006.54 1007.31 1008.51 1008.46 1007.31 1006.01 1004.15 1003.95 1004.52 1005.00 1005.92 1006.87 1007.94 1009.41
1015.61 1015.27 1014.94 1014.70 1014.44 1014.15 1013.90 1013.75 1013.52 1013.23 1012.97 1012.80 1012.61 1012.37 1012.10 1011.75 1009.33 1005.51 1005.84 1005.91 1006.10 1006.32 1005.87 1004.85 1003.56 1002.93 1002.83 1003.97 1005.64 1004.91 1005.45 1007.01 1008.29 1008.88 1008.97 1008.49 1006.37 1004.67 1004.84 1004.64 1005.14 1006.21 1007.09 1007.75 1009.02
1015.64 1015.23 1014.84 1014.48 1014.18 1013.94 1013.73 1013.51 1013.30 1013.01 1012.77 1012.59 1012.52 1012.25 1012.04 1011.05 1007.24 1005.39 1005.90 1005.96 1006.03 1005.94 1005.52 1004.44 1003.52 1002.68 1002.57 1004.32 1006.13 1005.86 1005.76 1007.09 1008.35 1009.25 1009.88 1009.35 1007.96 1005.26 1004.94 1004.70 1005.18 1006.19 1006.82 1007.59 1008.09
1015.67 1015.25 1014.82 1014.41 1014.05 1013.69 1013.44 1013.22 1013.04 1012.81 1012.54 1012.40 1012.36 1012.15 1011.51 1008.97 1005.66 1005.33 1005.77 1005.91 1005.82 1005.83 1005.01 1003.77 1002.81 1002.06 1002.45 1003.82 1005.46 1005.96 1006.48 1007.05 1008.49 1009.08 1009.76 1009.02 1008.42 1007.00 1005.86 1005.54 1005.85 1006.36 1006.91 1007.49 1007.69
1015.68 1015.23 1014.79 1014.35 1013.92 1013.51 1013.21 1012.99 1012.75 1012.48 1012.28 1012.21 1012.19 1012.12 1010.64 1006.53 1003.81 1004.74 1004.97 1005.25 1004.86 1004.71 1003.99 1003.21 1002.20 1001.82 1002.37 1003.81 1003.86 1005.51 1006.14 1006.88 1008.04 1008.79 1008.86 1008.88 1009.27 1007.49 1006.39 1006.19 1006.40 1006.57 1006.63 1007.16 1007.89
1015.59 1015.13 1014.69 1014.26 1013.81 1013.41 1013.00 1012.69 1012.39 1012.13 1011.98 1011.98 1012.01 1011.39 1008.52 1004.73 1003.36 1003.73 1004.26 1004.42 1004.34 1003.67 1003.05 1002.39 1002.08 1002.08 1003.14 1004.31 1003.37 1004.70 1005.61 1006.51 1007.32 1008.05 1008.39 1008.21 1009.47 1009.22 1007.79 1006.40 1006.40 1006.35 1006.42 1007.13 1007.88
1015.53 1015.05 1014.57 1014.10 1013.64 1013.20 1012.75 1012.35 1012.00 1011.72 1011.56 1011.72 1011.80 1010.49 1006.39 1003.55 1003.36 1003.60 1003.60 1003.64 1003.77 1003.36 1003.10 1002.30 1002.16 1002.47 1002.91 1004.48 1004.60 1004.90 1006.02 1006.25 1006.86 1007.59 1008.09 1007.98 1009.68 1009.46 1007.65 1007.80 1006.37 1006.26 1006.42 1007.11 1007.88
1015.50 1014.95 1014.40 1013.85 1013.34 1012.87 1012.44 1011.96 1011.46 1011.14 1011.04 1011.30 1011.03 1009.11 1004.58 1003.92 1003.49 1003.10 1003.12 1003.08 1003.24 1003.31 1003.03 1002.70 1002.71 1002.49 1002.20 1004.19 1006.71 1007.97 1007.50 1006.75 1006.45 1006.61 1007.28 1007.64 1008.81 1009.45 1008.40 1007.79 1006.58 1006.35 1006.41 1007.15 1007.62
1015.38 1014.77 1014.18 1013.60 1013.06 1012.57 1012.05 1011.70 1010.93 1010.91 1010.65 1009.91 1008.61 1007.37 1004.13 1002.37 1002.33 1002.31 1002.73 1002.75 1002.90 1002.85 1002.76 1002.54 1002.38 1002.26 1003.06 1005.32 1008.67 1009.27 1008.64 1007.21 1006.01 1006.02 1006.83 1007.44 1008.08 1008.63 1008.43 1007.28 1006.80 1006.46 1006.65 1006.99 1007.17
1015.24 1014.58 1013.92 1013.34 1012.79 1012.39 1011.70 1010.56 1010.35 1009.09 1007.94 1005.66 1004.45 1003.25 1001.60 1001.69 1002.18 1002.44 1002.57 1002.69 1002.60 1002.53 1002.14 1001.76 1001.65 1001.51 1004.37 1006.80 1007.58 1008.43 1007.36 1006.17 1004.96 1004.96 1006.22 1006.74 1007.22 1007.94 1007.80 1007.04 1006.49 1006.28 1006.71 1006.71 1007.24
1015.06 1014.37 1013.60 1012.94 1012.42 1012.07 1011.74 1008.25 1005.10 1004.57 1004.08 1003.77 1002.76 1001.89 1001.60 1001.79 1001.98 1002.02 1002.46 1002.25 1002.10 1001.81 1001.63 1000.98 1000.79 1002.16 1004.51 1005.29 1005.78 1005.15 1005.33 1003.52 1002.95 1003.33 1004.52 1006.07 1006.56 1008.04 1007.47 1006.91 1006.11 1005.75 1006.19 1006.80 1007.64
1014.90 1014.15 1013.30 1012.41 1011.81 1011.28 1008.67 1006.05 1004.55 1003.99 1003.11 1001.20 1001.27 1001.12 1001.28 1001.36 1000.76 1001.25 1002.04 1001.69 1001.45 1001.36 1000.77 1000.09 999.43 1000.28 1002.42 1004.11 1004.13 1002.99 1002.51 1001.54 1001.13 1002.27 1003.55 1005.34 1008.44 1009.33 1008.59 1007.56 1006.06 1005.77 1005.70 1006.69 1007.26
1014.62 1013.94 1013.24 1012.11 1011.12 1007.67 1006.22 1005.02 1004.45 1003.86 1002.49 1000.07 1000.38 999.93 1000.49 1000.71 1000.14 1000.29 1001.33 1001.16 1000.67 1000.65 1000.26 999.78 999.45 999.67 1000.42 1000.76 1000.61 1000.01 999.92 1000.04 1000.49 1001.56 1003.49 1004.72 1007.97 1009.44 1007.18 1007.01 1005.55 1005.06 1004.99 1005.97 1006.69
1014.34 1013.74 1013.18 1013.31 1010.56 1007.19 1004.53 1004.42 1004.23 1003.73 1001.13 999.45 999.20 999.02 999.78 1000.01 999.88 1000.29 1000.84 1000.73 1000.37 1000.09 1000.07 999.49 999.36 999.43 999.56 999.75 999.37 999.28 999.42 999.66 999.65 1000.55 1002.53 1003.60 1005.77 1006.39 1006.27 1006.33 1005.56 1004.15 1003.96 1004.35 1004.60
1014.04 1013.41 1013.08 1011.25 1010.40 1006.74 1005.04 1004.50 1004.30 1003.05 999.23 998.21 998.65 999.22 999.37 999.72 999.35 1000.13 1000.63 1000.81 1000.32 999.97 999.91 999.53 998.98 998.99 999.01 999.08 999.17 998.99 999.22 999.09 999.02 999.42 1000.18 1000.70 1004.06 1004.23 1004.74 1005.27 1005.55 1003.02 1002.39 1002.91 1003.69
1013.28 1012.49 1013.05 1010.96 1007.07 1005.26 1005.03 1004.69 1003.59 1000.98 997.91 997.40 997.93 998.54 998.83 998.72 998.94 999.87 1000.34 1000.54 999.99 999.72 999.24 999.25 998.99 998.80 998.91 998.40 998.39 999.09 998.98 998.21 998.39 998.81 999.44 999.75 1000.17 1001.18 1001.25 1001.67 1000.23 1001.27 1001.16 1001.88 1002.81
1012.56 1011.01 1009.23 1008.38 1006.19 1006.13 1005.45 1004.58 1002.19 999.02 997.57 996.33 997.00 997.77 998.17 997.89 998.20 999.24 999.75 999.57 999.45 998.77 998.09 997.60 997.71 997.96 998.20 998.37 997.84 998.14 998.25 997.94 998.62 999.60 1000.63 1000.52 999.57 1000.48 999.83 999.72 999.86 1000.15 1000.61 1001.45 1002.42
1011.95 1008.45 1007.06 1005.71 1006.38 1006.02 1005.10 1003.19 1000.64 998.64 996.78 996.10 996.50 996.92 997.19 997.20 997.49 998.04 998.59 998.22 998.05 998.18 997.72 996.44 996.55 997.21 997.54 998.01 998.00 997.52 997.61 997.51 997.80 997.33 997.51 997.63 998.28 998.48 998.78 999.19 999.72 1000.16 1000.79 1001.65 1002.28
1011.98 1008.38 1004.93 1004.70 1005.25 1005.51 1004.54 1002.15 1000.04 998.55 997.40 997.12 996.48 996.68 996.53 996.48 996.97 997.15 997.06 997.10 996.88 997.09 997.33 996.97 996.69 996.99 997.50 998.15 998.13 998.06 997.75 997.45 997.44 997.36 997.57 997.71 997.94 998.29 998.71 999.03 999.52 1000.01 1000.49 1001.40 1002.19
1011.17 1007.07 1004.67 1004.69 1005.06 1004.81 1003.21 1001.63 1000.25 998.98 998.36 998.27 997.93 997.12 996.58 996.07 995.98 996.25 996.21 996.08 996.27 996.54 997.21 997.14 996.83 997.29 997.38 997.74 997.53 997.77 997.86 997.95 997.77 997.77 997.81 997.83 998.61 998.50 998.84 999.01 999.47 999.90 1000.30 1001.02 1001.91
1009.88 1005.87 1004.38 1004.46 1004.54 1003.52 1002.37 1001.30 1000.15 998.86 998.21 998.62 998.63 998.03 997.19 996.51 995.82 995.77 995.49 995.32 995.55 996.31 996.77 997.37 996.81 996.73 996.87 996.78 997.10 997.03 997.15 997.45 997.59 997.91 998.22 998.29 999.54 999.03 999.25 999.51 999.82 1000.03 1000.75 1001.26 1001.74
1010.72 1006.29 1003.84 1004.22 1003.41 1002.24 1001.12 1000.55 999.79 998.99 998.61 998.88 998.45 998.33 997.79 997.04 996.45 995.65 995.20 995.17 995.74 996.29 996.92 997.43 997.43 997.19 996.88 997.18 997.69 997.91 997.88 997.88 997.76 997.72 998.04 998.59 999.34 1000.47 1000.16 1000.64 1000.91 1001.12 1001.31 1002.13 1002.84
1011.22 1005.70 1003.52 1003.73 1003.43 1002.41 1001.24 999.93 999.41 999.31 999.45 999.15 998.56 998.22 997.96 997.34 996.91 996.32 995.55 995.43 995.83 996.48 997.53 997.83 997.61 997.27 997.22 998.53 999.82 998.59 998.05 997.78 997.89 998.04 998.02 998.66 999.58 1000.41 1000.44 1000.82 1001.20 1002.37 1002.26 1002.53 1002.95
1010.93 1006.13 1005.06 1003.94 1002.71 1002.35 1001.66 1001.08 1000.21 999.47 999.19 999.39 999.22 998.86 998.54 998.06 997.41 996.88 996.47 995.90 995.77 997.08 997.50 997.92 998.06 998.12 997.69 997.79 997.79 997.99 997.88 997.85 997.95 998.20 998.67 998.76 999.30 1000.01 999.92 1000.88 1001.69 1002.23 1002.55 1002.95 1003.38
1010.69 1008.72 1007.27 1006.03 1004.53 1003.67 1002.77 1002.07 1001.38 1000.54 999.76 999.17 999.28 999.22 999.06 998.92 998.37 997.77 997.37 996.93 996.38 997.93 997.62 997.98 998.15 998.64 998.27 997.89 997.53 997.39 997.79 998.13 998.17 998.30 998.55 998.81 998.95 999.32 999.80 1000.52 1001.38 1002.04 1002.70 1003.10 1003.24
1010.70 1010.06 1008.86 1007.06 1005.37 1003.81 1002.61 1001.92 1001.32 1001.01 1000.71 1000.00 999.78 999.43 999.16 999.10 999.34 999.26 998.97 998.17 997.56 997.30 997.85 998.03 998.14 998.34 998.43 998.24 998.04 997.60 997.40 997.61 997.92 998.03 998.30 998.54 998.88 999.29 999.72 1000.45 1001.11 1001.72 1002.46 1002.77 1003.12
Thickness
5755 5756 5757 5758 5760 5761 5763 5765 5766 5768 5770 5773 5775 5776 5778 5782 5789 5795 5801 5821 5827 5826 5824 5827 5827 5829 5834 5828 5835 5832 5763 5758 5766 5762 5745 5780 5796 5812 5817 5802 5805 5804 5797 5787 5784
5758 5759 5760 5761 5763 5764 5766 5768 5769 5770 5772 5773 5775 5777 5779 5781 5792 5802 5828 5828 5826 5825 5820 5819 5819 5828 5822 5810 5804 5801 5774 5776 5786 5771 5759 5772 5789 5809 5800 5792 5790 5789 5794 5794 5783
5760 5762 5764 5765 5766 5768 5770 5771 5772 5774 5775 5776 5776 5777 5779 5781 5793 5818 5829 5828 5826 5824 5824 5828 5834 5829 5814 5811 5790 5809 5784 5784 5773 5772 5771 5769 5789 5812 5791 5783 5791 5781 5783 5788 5782
5762 5764 5767 5769 5770 5772 5773 5774 5775 5776 5778 5778 5777 5778 5779 5785 5786 5825 5826 5826 5825 5825 5821 5822 5823 5816 5811 5791 5789 5785 5800 5789 5774 5768 5755 5752 5777 5801 5799 5797 5805 5797 5795 5791 5788
5762 5766 5768 5771 5773 5776 5777 5777 5778 5779 5779 5779 5777 5777 5783 5789 5806 5829 5825 5824 5824 5820 5814 5818 5817 5822 5808 5799 5789 5773 5787 5791 5774 5769 5759 5756 5771 5777 5791 5802 5805 5800 5796 5790 5793
5762 5765 5769 5772 5775 5778 5779 5780 5781 5782 5781 5780 5778 5776 5783 5785 5840 5831 5829 5824 5824 5820 5819 5824 5824 5834 5818 5801 5800 5797 5794 5790 5778 5767 5771 5767 5759 5780 5792 5801 5795 5794 5795 5794 5792
5762 5765 5769 5772 5775 5778 5781 5782 5784 5784 5783 5781 5778 5781 5790 5803 5841 5838 5832 5824 5827 5827 5817 5833 5837 5825 5812 5794 5825 5810 5789 5789 5781 5775 5769 5780 5751 5750 5779 5799 5792 5795 5799 5794 5792
5761 5764 5768 5772 5775 5778 5782 5784 5786 5787 5786 5782 5778 5784 5790 5838 5840 5832 5834 5826 5830 5833 5827 5838 5840 5825 5816 5798 5803 5796 5784 5767 5781 5777 5776 5779 5735 5757 5782 5776 5790 5795 5798 5793 5791
5759 5763 5767 5772 5775 5779 5782 5786 5789 5790 5789 5784 5783 5787 5798 5833 5819 5833 5834 5818 5823 5824 5827 5833 5827 5816 5824 5789 5752 5750 5734 5759 5770 5789 5777 5775 5747 5757 5776 5780 5788 5794 5797 5790 5791
5757 5762 5766 5771 5775 5779 5783 5786 5790 5790 5791 5793 5798 5785 5812 5813 5827 5832 5834 5828 5813 5813 5808 5811 5810 5802 5799 5758 5708 5712 5729 5753 5762 5782 5780 5772 5764 5766 5773 5787 5787 5792 5792 5790 5792
5755 5760 5765 5770 5774 5777 5784 5793 5792 5792 5800 5807 5812 5811 5825 5833 5834 5819 5826 5816 5813 5804 5785 5807 5793 5794 5771 5754 5751 5744 5749 5756 5782 5791 5775 5774 5776 5773 5780 5789 5789 5792 5789 5795 5791
5754 5759 5765 5770 5774 5777 5779 5799 5820 5823 5801 5821 5826 5826 5832 5830 5801 5811 5824 5798 5796 5782 5798 5799 5790 5794 5780 5765 5772 5779 5764 5786 5806 5809 5791 5767 5780 5771 5782 5786 5795 5796 5793 5790 5784
5754 5759 5765 5772 5777 5781 5800 5812 5834 5832 5800 5824 5830 5822 5820 5824 5809 5805 5812 5805 5792 5784 5795 5793 5819 5827 5788 5765 5771 5791 5784 5794 5806 5810 5805 5753 5743 5732 5757 5774 5796 5800 5803 5789 5789
5753 5758 5763 5773 5781 5811 5807 5826 5832 5831 5780 5809 5813 5824 5826 5823 5806 5831 5823 5809 5800 5787 5799 5804 5825 5817 5806 5800 5815 5803 5824 5819 5811 5799 5766 5781 5726 5727 5763 5765 5791 5801 5802 5794 5790
5750 5755 5759 5758 5782 5797 5821 5831 5830 5816 5747 5817 5821 5855 5835 5813 5816 5812 5830 5813 5790 5795 5800 5796 5806 5803 5798 5803 5823 5809 5825 5818 5820 5807 5777 5780 5750 5759 5759 5757 5767 5800 5809 5808 5810
5746 5751 5754 5771 5774 5803 5820 5824 5813 5767 5762 5810 5825 5812 5810 5813 5816 5815 5809 5818 5817 5800 5803 5802 5831 5818 5813 5820 5821 5830 5815 5820 5825 5820 5790 5808 5741 5765 5759 5755 5735 5804 5818 5818 5816
5743 5750 5747 5762 5786 5812 5814 5799 5761 5757 5830 5813 5809 5815 5808 5805 5808 5802 5790 5784 5781 5769 5777 5796 5801 5817 5822 5809 5825 5813 5802 5784 5781 5783 5782 5824 5807 5789 5808 5800 5804 5814 5819 5825 5824
5743 5756 5770 5777 5794 5796 5792 5767 5745 5801 5812 5847 5828 5817 5799 5815 5811 5801 5790 5782 5801 5802 5799 5792 5780 5809 5822 5809 5809 5809 5808 5789 5745 5741 5753 5780 5777 5779 5825 5834 5831 5831 5827 5825 5821
5745 5776 5782 5793 5788 5788 5769 5747 5770 5800 5836 5837 5829 5808 5805 5820 5819 5806 5796 5797 5810 5814 5791 5811 5804 5828 5828 5825 5823 5814 5802 5833 5804 5824 5813 5820 5817 5831 5830 5825 5825 5820 5820 5816 5816
5739 5763 5786 5797 5792 5777 5756 5752 5786 5816 5826 5823 5805 5816 5803 5817 5809 5810 5810 5823 5820 5831 5831 5819 5798 5824 5822 5824 5823 5811 5829 5799 5813 5779 5773 5802 5801 5792 5808 5813 5818 5817 5815 5813 5816
5739 5758 5782 5790 5783 5760 5747 5763 5783 5809 5811 5798 5795 5802 5816 5819 5825 5813 5816 5833 5836 5831 5831 5823 5817 5804 5820 5802 5800 5806 5801 5807 5814 5810 5783 5780 5777 5823 5814 5820 5815 5818 5821 5817 5814
5742 5750 5783 5786 5748 5758 5755 5772 5783 5797 5811 5798 5799 5799 5801 5814 5820 5817 5816 5831 5848 5837 5811 5822 5819 5801 5806 5835 5838 5832 5819 5818 5793 5788 5801 5795 5770 5829 5822 5822 5822 5820 5814 5818 5816
5725 5751 5785 5775 5739 5754 5775 5776 5787 5789 5791 5786 5788 5799 5809 5803 5795 5820 5828 5849 5842 5828 5814 5819 5801 5781 5796 5814 5818 5802 5811 5814 5818 5818 5794 5777 5777 5805 5810 5803 5807 5805 5802 5804 5802
5718 5742 5765 5764 5761 5756 5759 5771 5773 5791 5780 5786 5787 5798 5795 5795 5809 5803 5819 5837 5837 5829 5816 5819 5802 5798 5781 5772 5768 5779 5798 5811 5806 5786 5796 5794 5775 5786 5794 5791 5791 5785 5793 5794 5795
5718 5742 5747 5734 5753 5756 5760 5759 5757 5762 5782 5780 5771 5776 5777 5770 5786 5793 5812 5823 5830 5808 5816 5809 5780 5791 5804 5806 5805 5797 5796 5801 5793 5797 5775 5787 5779 5786 5798 5785 5780 5785 5787 5783 5782
5706 5711 5724 5723 5737 5736 5736 5737 5739 5753 5763 5763 5758 5768 5773 5762 5775 5779 5797 5799 5807 5796 5799 5806 5777 5783 5778 5801 5807 5796 5796 5792 5792 5793 5790 5791 5785 5808 5806 5795 5785 5782 5778 5774 5775
5709 5707 5705 5708 5720 5727 5734 5738 5741 5749 5755 5763 5760 5759 5757 5770 5771 5773 5780 5792 5798 5793 5787 5786 5783 5775 5759 5789 5787 5770 5790 5792 5790 5797 5792 5773 5790 5799 5790 5781 5779 5778 5776 5775 5775